USA 342

Last updated on Thu Jul 09 2026 00:03:08 GMT+0000 (Coordinated Universal Time)

1 55263U 23008A 26188.50607425 .00000000 00000+0 00000+0 0 9996 2 55263 0.0041 358.8692 0000194 5.7709 126.9344 1.00266819 12725
UTC large
Height (km)
Speed (km/s)
/
Latitude / Longitude
Inclination (degrees)
Orbital Period (minutes)
Azimuth
Elevation
Range (km)
Doppler Factor

Next 0 passes for location: London (51.5072 / 0.1276)

No passes found over London.
USA 342